GW6754 Weather Reports


time (UTC)temp
F
wind
direction
speed
knots
gust
knots
rain 1hr
in
rain 24hr
in
rain mn
in
humidity
%
barometer
mb
20260505224303 83 190 5.2 14.8 0.00 0.00 0.00 75 1006.6
20260505223230 82 175 7.0 14.8 0.00 0.00 0.00 75 1006.8
20260505222236 83 208 7.0 13.9 0.00 0.00 0.00 74 1006.8
20260505221242 83 218 7.0 14.8 0.00 0.00 0.00 74 1006.8
20260505220229 83 184 7.0 15.6 0.00 0.00 0.00 75 1006.8
20260505215301 83 175 6.1 14.8 0.00 0.00 0.00 75 1007.0
20260505214244 83 220 7.8 13.0 0.00 0.00 0.00 74 1007.3
20260505213233 83 176 7.0 13.0 0.00 0.00 0.00 75 1007.4
20260505212301 83 173 7.0 13.0 0.00 0.00 0.00 75 1007.5
20260505211230 83 163 7.8 15.6 0.00 0.00 0.00 75 1007.6
20260505210240 83 173 7.8 14.8 0.00 0.00 0.00 75 1007.8
20260505205228 84 162 6.1 13.0 0.00 0.00 0.00 75 1007.9
20260505204234 83 159 7.8 13.9 0.00 0.00 0.00 75 1007.9
20260505203228 83 129 7.8 13.9 0.00 0.00 0.00 75 1008.1
20260505202236 83 181 7.0 13.9 0.00 0.00 0.00 76 1008.2
20260505201242 83 221 8.7 13.0 0.00 0.00 0.00 75 1008.3
20260505200252 82 202 6.1 13.0 0.00 0.00 0.00 77 1008.5
20260505195241 82 204 5.2 12.2 0.00 0.00 0.00 78 1008.6
20260505194228 82 67 4.3 10.4 0.00 0.00 0.00 77 1008.8
20260505193237 82 186 5.2 10.4 0.00 0.00 0.00 78 1008.9
20260505192225 81 198 3.5 10.4 0.00 0.00 0.00 78 1009.0
20260505191234 82 185 5.2 9.6 0.00 0.00 0.00 78 1009.0
20260505190303 81 169 6.1 12.2 0.00 0.00 0.00 78 1009.1
20260505185230 81 187 5.2 10.4 0.00 0.00 0.00 79 1009.1
20260505184237 81 192 7.0 13.9 0.00 0.00 0.00 78 1009.1
20260505183229 81 188 7.0 13.0 0.00 0.00 0.00 79 1009.3
20260505182237 81 179 7.0 10.4 0.00 0.00 0.00 79 1009.2
20260505181224 81 200 4.3 13.0 0.00 0.00 0.00 79 1009.4
20260505180253 81 177 5.2 14.8 0.00 0.00 0.00 79 1009.5
20260505175239 80 207 5.2 10.4 0.00 0.00 0.00 80 1009.6
20260505174229 80 200 7.0 13.9 0.00 0.00 0.00 80 1009.8
20260505173237 80 164 6.1 16.5 0.00 0.00 0.00 81 1009.7
20260505172225 80 183 6.1 10.4 0.00 0.00 0.00 81 1009.7
20260505171232 79 158 7.8 12.2 0.00 0.00 0.00 81 1009.7
20260505170225 79 144 5.2 16.5 0.00 0.00 0.00 82 1009.6
20260505165233 79 167 6.1 13.9 0.00 0.00 0.00 83 1009.7
20260505164259 79 187 6.1 10.4 0.00 0.00 0.00 82 1009.9
20260505163246 79 188 4.3 10.4 0.00 0.00 0.00 83 1009.8
20260505162237 79 172 8.7 19.1 0.00 0.00 0.00 83 1009.7
20260505161243 79 174 5.2 9.6 0.00 0.00 0.00 84 1009.7
20260505160232 78 175 6.1 16.5 0.00 0.00 0.00 84 1009.7
20260505153238 77 173 4.3 10.4 0.00 0.00 0.00 87 1009.5
20260505152226 77 179 4.3 8.7 0.00 0.00 0.00 87 1009.4
20260505151231 77 155 4.3 9.6 0.00 0.00 0.00 87 1009.5
20260505150225 76 195 5.2 8.7 0.00 0.00 0.00 88 1009.5
20260505140231 74 175 5.2 10.4 0.00 0.00 0.00 91 1009.1
20260505130227 71 175 2.6 5.2 0.00 0.00 0.00 93 1009.2
20260505124240 70 189 0.9 3.5 0.00 0.00 0.00 93 1009.0
20260505123232 70 175 0.9 4.3 0.00 0.00 0.00 93 1009.1
20260505122239 70 172 0.0 3.5 0.00 0.00 0.00 93 1009.0
20260505121226 70 168 0.9 2.6 0.00 0.00 0.00 93 1008.9
20260505120235 70 169 0.0 3.5 0.00 0.00 0.00 93 1008.8
20260505115227 70 160 0.9 3.5 0.00 0.00 0.00 93 1008.6
20260505114253 69 138 0.9 3.5 0.00 0.00 0.00 93 1008.5
20260505113241 69 177 0.9 4.3 0.00 0.00 0.00 93 1008.5
20260505112229 69 167 1.7 3.5 0.00 0.00 0.00 93 1008.7
20260505111240 69 166 1.7 3.5 0.00 0.00 0.00 93 1008.6
20260505110229 69 185 2.6 4.3 0.00 0.00 0.00 92 1008.4
20260505101230 69 175 2.6 5.2 0.00 0.00 0.00 92 1008.7
20260505100224 69 146 1.7 6.1 0.00 0.00 0.00 92 1008.6
20260505095232 69 176 1.7 4.3 0.00 0.00 0.00 92 1008.6
20260505094259 69 179 2.6 5.2 0.00 0.00 0.00 92 1008.9
20260505093226 69 167 3.5 4.3 0.00 0.00 0.00 92 1008.8
20260505092233 69 171 1.7 5.2 0.00 0.00 0.00 91 1008.7
20260505091224 69 194 2.6 5.2 0.00 0.00 0.00 91 1009.0
20260505090232 69 165 1.7 5.2 0.00 0.00 0.00 91 1009.0
20260505085239 69 192 1.7 5.2 0.00 0.00 0.00 91 1009.1
20260505084229 69 170 1.7 4.3 0.00 0.00 0.00 91 1009.1
20260505083237 69 181 1.7 4.3 0.00 0.00 0.00 90 1009.2
20260505082243 69 188 1.7 4.3 0.00 0.00 0.00 90 1009.4
20260505081249 69 190 1.7 4.3 0.00 0.00 0.00 90 1009.4
20260505080237 69 175 2.6 5.2 0.00 0.00 0.00 90 1009.5
20260505075229 69 183 1.7 6.1 0.00 0.00 0.00 90 1009.5
20260505074234 69 148 2.6 5.2 0.00 0.00 0.00 89 1009.6
20260505073243 69 181 3.5 5.2 0.00 0.00 0.00 89 1009.6
20260505072231 69 188 1.7 5.2 0.00 0.00 0.00 89 1009.8
20260505071301 69 185 2.6 7.0 0.00 0.00 0.00 88 1009.8
20260505070249 69 168 2.6 7.8 0.00 0.00 0.00 88 1009.8
20260505065236 69 187 3.5 7.0 0.00 0.00 0.00 88 1009.9
20260505064241 69 189 3.5 7.0 0.00 0.00 0.00 87 1010.0
20260505063249 69 172 2.6 7.0 0.00 0.00 0.00 87 1010.1
20260505062240 70 165 2.6 7.8 0.00 0.00 0.00 87 1010.2
20260505061226 70 198 2.6 6.1 0.00 0.00 0.00 86 1010.3
20260505060254 70 175 2.6 7.0 0.00 0.00 0.00 86 1010.2
20260505055303 70 179 3.5 7.0 0.00 0.00 0.00 86 1010.5
20260505054230 70 130 4.3 8.7 0.00 0.00 0.00 85 1010.4
20260505053259 70 186 3.5 7.0 0.00 0.00 0.00 85 1010.5
20260505052225 70 168 1.7 7.8 0.00 0.00 0.00 85 1010.6
20260505051233 70 182 4.3 9.6 0.00 0.00 0.00 84 1010.8
20260505050225 70 167 2.6 7.0 0.00 0.00 0.00 84 1011.0
20260505041225 71 202 3.5 6.1 0.00 0.00 0.00 82 1011.1
20260505040233 71 169 2.6 7.0 0.00 0.00 0.00 82 1011.0
20260505035241 71 174 3.5 7.8 0.00 0.00 0.00 81 1011.1
20260505034230 71 177 4.3 7.8 0.00 0.00 0.00 81 1011.0
20260505033239 71 167 3.5 8.7 0.00 0.00 0.00 81 1011.1
20260505032227 72 166 3.5 5.2 0.00 0.00 0.00 80 1011.2
20260505031233 72 203 3.5 7.8 0.00 0.00 0.00 79 1011.2
20260505030226 72 180 3.5 6.1 0.00 0.00 0.00 79 1011.1
20260505025234 72 161 0.9 7.0 0.00 0.00 0.00 79 1011.1
20260505024240 72 177 0.9 6.1 0.00 0.00 0.00 78 1011.1
20260505023230 73 183 3.5 7.8 0.00 0.00 0.00 78 1011.0
20260505022242 73 194 3.5 7.0 0.00 0.00 0.00 77 1011.1
20260505021229 73 182 2.6 7.0 0.00 0.00 0.00 77 1011.0
20260505020238 73 202 3.5 9.6 0.00 0.00 0.00 76 1010.7
20260505015229 74 171 2.6 7.8 0.00 0.00 0.00 76 1010.7
20260505014235 75 184 3.5 7.8 0.00 0.00 0.00 74 1010.7
20260505013243 75 178 4.3 8.7 0.00 0.00 0.00 73 1010.6
20260505012231 76 145 5.2 12.2 0.00 0.00 0.00 73 1010.3
20260505011236 76 177 5.2 12.2 0.00 0.00 0.00 72 1010.3
20260505010229 76 148 5.2 8.7 0.00 0.00 0.00 72 1010.2
20260505005237 76 198 4.3 8.7 0.00 0.00 0.00 71 1010.4
20260505004223 77 198 4.3 8.7 0.00 0.00 0.00 70 1010.4
20260505003253 77 181 5.2 10.4 0.00 0.00 0.00 69 1010.4
20260505002304 77 183 5.2 11.3 0.00 0.00 0.00 69 1010.4
20260505001228 77 158 5.2 13.0 0.00 0.00 0.00 68 1010.4
20260505000236 78 193 6.1 9.6 0.00 0.00 0.00 68 1010.4
20260504235224 78 127 3.5 11.3 0.00 0.00 0.00 67 1010.4
20260504234235 79 151 4.3 13.9 0.00 0.00 0.00 66 1010.4
20260504233304 79 185 6.1 13.0 0.00 0.00 0.00 65 1010.6
20260504232230 79 180 6.1 13.0 0.00 0.00 0.00 66 1010.6
20260504231237 79 147 6.1 12.2 0.00 0.00 0.00 65 1010.8
20260504230229 80 153 6.1 12.2 0.00 0.00 0.00 65 1010.8
20260504225236 80 187 5.2 13.0 0.00 0.00 0.00 65 1010.9